When you browse on this site, cookies collect data to enhance your experience and personalize the content and advertising you see.
Visit our Privacy Policy to learn more. By continuing to use the site, you agree to this use of cookies and data.
  • In Lithuania
  • List of Countries
  • For 7 days
  • Water Temperature
  • Weather Map
  • Weather Widgets
  • user-avatar
    Login

    Hourly Weather Ekatino

    Today, 24 January, Friday

    Time Temperature Precipitation Wind Pressure Humidity
    00:00 -5°C° 0 mm 3 mps 741 mmHg 79%
    01:00 -5°C° 0 mm 3 mps 740 mmHg 81%
    02:00 -5°C° 0 mm 3 mps 740 mmHg 84%
    03:00 -5°C° 0.1 mm 4 mps 739 mmHg 86%
    04:00 -4°C° 0.1 mm 4 mps 738 mmHg 89%
    05:00 -5°C° 0.1 mm 5 mps 737 mmHg 91%
    06:00 -5°C° 0.2 mm 5 mps 736 mmHg 92%
    07:00 -4°C° 0.2 mm 5 mps 735 mmHg 93%
    08:00 -4°C° 0 mm 5 mps 735 mmHg 93%
    09:00 -2°C° 0.1 mm 5 mps 734 mmHg 92%
    10:00 -1°C° 0.1 mm 5 mps 734 mmHg 90%
    11:00 0°C° 0.1 mm 5 mps 734 mmHg 89%
    12:00 0°C° 0 mm 5 mps 733 mmHg 90%
    13:00 0°C° 0 mm 5 mps 733 mmHg 92%
    14:00 0°C° 0 mm 5 mps 732 mmHg 94%
    15:00 0°C° 0.2 mm 4 mps 732 mmHg 95%
    16:00 0°C° 0.2 mm 4 mps 732 mmHg 96%
    17:00 0°C° 0.2 mm 4 mps 731 mmHg 96%
    18:00 +1°C° 0.1 mm 3 mps 731 mmHg 96%
    19:00 0°C° 0.1 mm 3 mps 731 mmHg 95%
    20:00 0°C° 0.1 mm 3 mps 731 mmHg 94%
    21:00 0°C° 0.5 mm 3 mps 731 mmHg 94%
    22:00 0°C° 0.5 mm 4 mps 731 mmHg 95%
    23:00 0°C° 0.5 mm 5 mps 731 mmHg 95%

    Tomorrow, 25 January, Saturday

    Time Temperature Precipitation Wind Pressure Humidity
    00:00 -1°C° 0.2 mm 4 mps 731 mmHg 92%
    01:00 -1°C° 0.2 mm 4 mps 731 mmHg 89%
    02:00 -1°C° 0.2 mm 4 mps 731 mmHg 86%
    03:00 -1°C° 0 mm 4 mps 731 mmHg 85%
    04:00 -2°C° 0 mm 4 mps 731 mmHg 85%
    05:00 -2°C° 0 mm 4 mps 731 mmHg 84%
    06:00 -2°C° 0 mm 4 mps 731 mmHg 85%
    07:00 -2°C° 0 mm 4 mps 730 mmHg 86%
    08:00 -1°C° 0 mm 5 mps 730 mmHg 88%
    09:00 -1°C° 0 mm 5 mps 730 mmHg 84%
    10:00 -2°C° 0 mm 6 mps 729 mmHg 81%
    11:00 -1°C° 0 mm 7 mps 729 mmHg 77%
    12:00 -2°C° 0.1 mm 7 mps 729 mmHg 73%
    13:00 -2°C° 0.1 mm 7 mps 729 mmHg 69%
    14:00 -3°C° 0.1 mm 7 mps 729 mmHg 65%
    15:00 -3°C° 0 mm 7 mps 730 mmHg 68%
    16:00 -4°C° 0 mm 6 mps 730 mmHg 70%
    17:00 -4°C° 0 mm 6 mps 731 mmHg 73%
    18:00 -5°C° 0 mm 6 mps 731 mmHg 75%
    19:00 -5°C° 0 mm 6 mps 732 mmHg 76%
    20:00 -5°C° 0 mm 6 mps 732 mmHg 78%
    21:00 -6°C° 0.1 mm 7 mps 733 mmHg 79%
    22:00 -6°C° 0.1 mm 7 mps 734 mmHg 80%
    23:00 -6°C° 0.1 mm 7 mps 735 mmHg 80%

    Day after tomorrow, 26 January, Sunday

    Time Temperature Precipitation Wind Pressure Humidity
    00:00 -5°C° 0 mm 6 mps 736 mmHg 79%
    01:00 -5°C° 0 mm 6 mps 736 mmHg 78%
    02:00 -6°C° 0 mm 5 mps 737 mmHg 76%
    03:00 -6°C° 0 mm 5 mps 738 mmHg 77%
    04:00 -5°C° 0 mm 4 mps 739 mmHg 78%
    05:00 -5°C° 0 mm 4 mps 739 mmHg 79%
    06:00 -5°C° 0 mm 4 mps 740 mmHg 81%
    07:00 -5°C° 0 mm 3 mps 740 mmHg 82%
    08:00 -5°C° 0 mm 3 mps 741 mmHg 84%
    09:00 -5°C° 0 mm 3 mps 741 mmHg 81%
    10:00 -4°C° 0 mm 3 mps 741 mmHg 79%
    11:00 -4°C° 0 mm 3 mps 741 mmHg 77%
    12:00 -3°C° 0.1 mm 4 mps 741 mmHg 82%
    13:00 -3°C° 0.1 mm 4 mps 741 mmHg 86%
    14:00 -3°C° 0.1 mm 4 mps 740 mmHg 91%
    15:00 -4°C° 0.1 mm 5 mps 740 mmHg 91%
    16:00 -2°C° 0.1 mm 5 mps 739 mmHg 92%
    17:00 -2°C° 0.1 mm 5 mps 738 mmHg 92%
    18:00 -1°C° 0.2 mm 5 mps 738 mmHg 93%
    19:00 0°C° 0.2 mm 5 mps 738 mmHg 93%
    20:00 +1°C° 0.2 mm 5 mps 738 mmHg 93%
    21:00 +1°C° 0.1 mm 5 mps 738 mmHg 92%
    22:00 +1°C° 0.1 mm 5 mps 738 mmHg 91%
    23:00 +1°C° 0.1 mm 5 mps 738 mmHg 91%

    27 January, Monday

    Time Temperature Precipitation Wind Pressure Humidity
    00:00 +1°C° 0.1 mm 5 mps 738 mmHg 91%
    01:00 +1°C° 0.1 mm 5 mps 739 mmHg 91%
    02:00 +1°C° 0.1 mm 4 mps 739 mmHg 91%
    03:00 +1°C° 0.1 mm 4 mps 739 mmHg 92%
    04:00 +1°C° 0.1 mm 4 mps 739 mmHg 93%
    05:00 +1°C° 0.1 mm 4 mps 739 mmHg 93%
    06:00 +1°C° 0.1 mm 4 mps 739 mmHg 95%
    07:00 +1°C° 0.1 mm 3 mps 740 mmHg 96%
    08:00 +1°C° 0.1 mm 3 mps 740 mmHg 97%
    09:00 +1°C° 0 mm 3 mps 740 mmHg 97%
    10:00 +1°C° 0 mm 3 mps 740 mmHg 97%
    11:00 +1°C° 0 mm 3 mps 740 mmHg 97%
    12:00 +1°C° 0.1 mm 3 mps 740 mmHg 97%
    13:00 +1°C° 0.1 mm 3 mps 740 mmHg 97%
    14:00 +1°C° 0.1 mm 3 mps 740 mmHg 97%
    15:00 +1°C° 0.3 mm 3 mps 740 mmHg 97%
    16:00 +1°C° 0.3 mm 3 mps 740 mmHg 97%
    17:00 +1°C° 0.3 mm 3 mps 740 mmHg 97%
    18:00 +1°C° 0.2 mm 3 mps 740 mmHg 97%
    19:00 +1°C° 0.2 mm 3 mps 740 mmHg 97%
    20:00 +1°C° 0.2 mm 3 mps 740 mmHg 97%
    21:00 +2°C° 0.2 mm 2 mps 740 mmHg 97%
    22:00 +2°C° 0.2 mm 2 mps 740 mmHg 97%
    23:00 +1°C° 0.2 mm 2 mps 740 mmHg 98%

    28 January, Tuesday

    Time Temperature Precipitation Wind Pressure Humidity
    00:00 +1°C° 0.1 mm 2 mps 740 mmHg 98%
    01:00 +1°C° 0.1 mm 2 mps 740 mmHg 98%
    02:00 +1°C° 0.1 mm 2 mps 740 mmHg 98%
    03:00 +1°C° 0 mm 2 mps 740 mmHg 98%
    04:00 +2°C° 0 mm 1 mps 740 mmHg 98%
    05:00 +2°C° 0 mm 1 mps 740 mmHg 98%
    06:00 +2°C° 0 mm 1 mps 740 mmHg 98%
    07:00 +2°C° 0 mm 1 mps 740 mmHg 98%
    08:00 +2°C° 0 mm 1 mps 740 mmHg 98%
    09:00 +2°C° 0 mm 1 mps 740 mmHg 98%
    10:00 +2°C° 0 mm 1 mps 740 mmHg 98%
    11:00 +2°C° 0 mm 1 mps 740 mmHg 98%
    12:00 +2°C° 0 mm 1 mps 740 mmHg 96%
    13:00 +2°C° 0 mm 1 mps 740 mmHg 95%
    14:00 +2°C° 0 mm 1 mps 740 mmHg 94%
    15:00 +2°C° 0 mm 1 mps 740 mmHg 94%
    16:00 -1°C° 0 mm 2 mps 740 mmHg 94%
    17:00 -1°C° 0 mm 2 mps 740 mmHg 94%
    18:00 -1°C° 0 mm 2 mps 740 mmHg 94%
    19:00 -1°C° 0 mm 2 mps 740 mmHg 93%
    20:00 -1°C° 0 mm 2 mps 740 mmHg 93%
    21:00 -1°C° 0 mm 2 mps 740 mmHg 93%
    22:00 -1°C° 0 mm 2 mps 740 mmHg 93%
    23:00 -1°C° 0 mm 3 mps 740 mmHg 93%

    29 January, Wednesday

    Time Temperature Precipitation Wind Pressure Humidity
    00:00 -1°C° 0 mm 3 mps 740 mmHg 93%
    01:00 -1°C° 0 mm 3 mps 739 mmHg 93%
    02:00 -1°C° 0 mm 3 mps 739 mmHg 93%
    03:00 -1°C° 0 mm 3 mps 739 mmHg 94%
    04:00 -1°C° 0 mm 3 mps 739 mmHg 94%
    05:00 -1°C° 0 mm 3 mps 738 mmHg 95%
    06:00 -1°C° 0 mm 3 mps 738 mmHg 94%
    07:00 0°C° 0 mm 3 mps 738 mmHg 93%
    08:00 0°C° 0 mm 3 mps 738 mmHg 92%
    09:00 -1°C° 0 mm 4 mps 738 mmHg 91%
    10:00 -1°C° 0 mm 4 mps 737 mmHg 90%
    11:00 -1°C° 0 mm 4 mps 737 mmHg 89%
    12:00 -1°C° 0 mm 4 mps 737 mmHg 88%
    13:00 -1°C° 0 mm 4 mps 736 mmHg 88%
    14:00 -1°C° 0 mm 4 mps 736 mmHg 87%
    15:00 -1°C° 0 mm 4 mps 736 mmHg 88%
    16:00 -1°C° 0 mm 4 mps 736 mmHg 89%
    17:00 -1°C° 0 mm 4 mps 735 mmHg 90%
    18:00 -1°C° 0.1 mm 4 mps 735 mmHg 92%
    19:00 -1°C° 0.1 mm 4 mps 735 mmHg 94%
    20:00 -1°C° 0.1 mm 5 mps 734 mmHg 96%
    21:00 -1°C° 0.4 mm 5 mps 734 mmHg 96%
    22:00 -1°C° 0.4 mm 5 mps 734 mmHg 96%
    23:00 -1°C° 0.4 mm 5 mps 733 mmHg 96%
    Show more